Date,TemperatureHighF,TemperatureAvgF,TemperatureLowF,DewpointHighF,DewpointAvgF,DewpointLowF,HumidityHigh,HumidityAvg,HumidityLow,PressureMaxIn,PressureMinIn,WindSpeedMaxMPH,WindSpeedAvgMPH,GustSpeedMaxMPH,PrecipitationSumIn
2013-1-1,55,43,35,40,36,29,91,76,43,25.01,24.74,18,0,18,0.00
2013-1-2,55,41,32,38,33,29,90,75,43,25.05,24.50,15,1,15,0.01
2013-1-3,53,40,32,42,35,29,92,83,61,25.23,24.54,11,0,11,0.01
2013-1-4,57,42,34,40,36,32,92,79,50,25.04,24.55,7,0,7,0.01
2013-1-5,50,44,36,45,40,33,91,89,81,25.05,24.68,16,0,16,0.37
2013-1-6,54,47,42,47,43,39,91,87,73,25.23,24.75,19,1,19,0.01
2013-1-7,61,47,38,51,43,36,93,86,66,25.02,21.36,9,0,9,0.00
2013-1-8,54,45,38,47,41,36,93,87,74,24.95,21.37,8,0,9,0.01
2013-1-9,56,46,40,50,41,36,93,83,70,31.12,24.63,20,1,20,0.01
2013-1-10,52,44,34,39,35,32,90,70,54,31.12,21.38,16,1,16,0.00
2013-1-11,52,45,36,42,36,30,89,71,58,28.50,21.40,17,1,17,0.00
2013-1-12,56,40,30,36,31,22,92,72,33,24.95,24.63,7,0,7,0.01
2013-1-13,52,37,27,34,28,20,91,75,36,24.96,24.62,6,0,6,0.00
2013-1-14,54,41,30,32,24,16,87,55,28,28.51,21.40,12,0,12,0.00
2013-1-15,50,39,30,36,31,28,91,76,49,28.50,24.63,11,1,11,0.01
2013-1-16,57,40,29,38,32,26,92,76,44,25.00,21.40,10,0,10,0.00
2013-1-17,60,42,32,40,34,29,95,75,43,25.01,24.63,14,0,14,0.00
2013-1-18,63,45,33,42,35,30,92,71,38,25.01,21.40,11,0,11,0.01
2013-1-19,62,45,33,41,34,30,91,69,40,24.99,21.37,15,1,15,0.00
2013-1-20,65,43,34,39,34,30,89,72,34,25.01,21.41,13,0,13,0.00
2013-1-21,60,44,32,42,36,29,90,76,45,28.50,21.37,13,0,13,0.01
2013-1-22,58,47,37,44,39,34,92,76,52,26.61,21.33,14,1,14,0.00
2013-1-23,52,49,47,48,45,42,91,87,81,24.80,21.38,11,0,11,0.30
2013-1-24,57,52,48,52,49,46,92,88,81,24.80,21.38,8,0,8,0.00
2013-1-25,66,56,48,55,51,46,93,84,68,26.61,24.80,7,0,7,0.01
2013-1-26,57,52,47,49,44,40,90,76,55,24.80,21.40,24,3,24,0.00
2013-1-27,58,47,38,42,38,34,86,71,44,25.00,24.61,16,1,16,0.00
2013-1-28,59,50,44,45,41,36,84,71,51,25.00,24.63,17,2,17,0.00
2013-1-29,64,50,42,46,42,38,88,75,49,24.80,24.63,14,0,14,0.00
2013-1-30,65,49,39,49,42,36,93,79,51,24.80,24.62,5,0,5,0.01
2013-1-31,63,48,38,48,42,35,93,80,56,24.80,24.65,12,0,12,0.00
2013-2-1,67,50,40,48,42,37,93,76,47,29.78,21.41,16,1,16,0.01
2013-2-2,66,49,42,50,44,39,91,82,55,24.80,21.38,7,0,7,0.01
2013-2-3,65,49,40,49,43,37,91,80,56,24.93,21.34,9,0,9,0.00
2013-2-4,60,47,40,51,44,37,91,87,72,31.12,24.64,7,0,7,0.01
2013-2-5,57,49,41,48,44,38,91,82,70,24.80,21.39,19,2,19,0.01
2013-2-6,62,47,37,46,40,34,92,78,49,28.87,21.36,14,1,14,0.01
2013-2-7,56,48,39,46,41,36,92,80,53,28.50,21.38,16,1,16,0.31
2013-2-8,57,46,36,42,38,31,92,75,48,28.50,21.38,18,1,18,0.01
2013-2-9,66,46,34,37,32,26,92,62,27,24.87,21.38,7,0,7,0.00
2013-2-10,66,46,32,44,36,29,92,71,36,24.87,21.33,9,0,9,0.00
2013-2-11,71,49,35,42,35,29,86,63,25,31.12,24.63,13,0,13,0.00
2013-2-12,60,47,36,45,39,33,91,75,41,30.60,21.39,10,1,10,0.00
2013-2-13,72,49,36,48,41,33,91,76,41,24.80,21.40,8,0,8,0.00
2013-2-14,75,52,39,49,42,36,92,73,38,24.80,24.67,8,0,8,0.01
2013-2-15,70,53,41,46,42,38,90,69,37,24.80,21.36,11,1,11,0.00
2013-2-16,68,53,41,47,43,38,91,71,38,24.80,21.40,9,1,9,0.01
2013-2-17,72,52,42,48,42,38,90,74,39,24.80,21.37,7,0,7,0.00
2013-2-18,55,47,40,43,40,37,90,76,60,24.80,21.36,17,2,17,0.01
2013-2-19,51,45,38,43,38,33,92,77,58,24.87,21.36,18,1,18,0.20
2013-2-20,58,45,36,42,37,32,92,73,46,24.98,21.37,17,1,17,0.00
2013-2-21,61,48,37,41,37,32,88,68,34,24.99,21.36,19,1,19,0.00
2013-2-22,67,49,36,47,40,34,91,75,34,24.96,21.37,18,1,18,0.00
2013-2-23,58,51,44,47,39,30,86,65,41,24.90,24.61,23,2,23,0.00
2013-2-24,71,53,42,38,30,23,75,43,20,24.98,21.39,13,1,13,0.00
2013-2-25,68,50,39,47,40,35,92,72,44,24.99,24.63,13,1,13,0.00
2013-2-26,71,40,35,40,34,27,90,82,20,24.91,21.29,3,0,13,0.00
2013-2-27,74,51,36,46,40,32,88,67,28,24.80,24.63,13,0,13,0.00
2013-2-28,70,56,48,53,49,44,87,77,54,31.12,22.10,16,1,16,0.00
2013-3-1,76,56,43,54,47,40,92,73,34,28.50,21.47,9,0,9,0.00
2013-3-2,69,58,48,54,49,44,89,75,54,24.80,24.80,11,0,11,0.01
2013-3-3,69,56,47,50,47,43,88,74,44,24.80,24.80,14,1,14,0.00
2013-3-4,64,50,42,49,43,38,87,78,57,24.80,21.41,13,1,13,0.00
2013-3-5,57,48,37,46,42,34,90,79,62,24.80,21.36,40,3,40,0.49
2013-3-6,60,52,42,47,43,38,88,72,49,24.80,21.35,33,3,40,0.26
2013-3-7,57,48,40,46,42,36,90,80,55,24.80,21.35,10,0,10,0.01
2013-3-8,58,45,41,45,40,37,87,84,60,24.80,21.32,8,0,26,0.00
2013-3-9,71,53,40,44,41,37,89,67,31,24.80,21.38,14,0,14,0.00
2013-3-10,77,54,39,49,41,34,91,66,27,24.80,21.37,11,0,11,0.01
2013-3-11,79,55,40,49,43,37,90,68,31,28.50,21.38,10,0,10,0.00
2013-3-12,75,56,43,55,47,40,91,75,40,31.12,22.10,6,0,6,0.00
2013-3-13,82,60,43,56,49,40,92,71,35,29.50,24.72,9,0,9,0.01
2013-3-14,72,58,47,57,47,41,90,70,34,24.80,21.47,17,1,17,0.00
2013-3-15,77,56,45,53,47,41,87,72,41,24.80,24.69,19,1,19,0.00
2013-3-16,73,56,45,52,46,42,91,71,37,24.80,24.80,21,2,21,0.00
2013-3-17,73,55,45,47,42,38,84,64,30,24.80,24.80,15,1,15,0.00
2013-3-18,70,55,41,50,44,37,92,69,44,24.80,24.71,14,0,14,0.00
2013-3-19,67,54,46,51,45,38,87,72,49,24.80,24.80,18,0,18,0.03
2013-3-20,65,55,49,55,49,44,92,82,68,24.80,24.80,19,1,21,0.02
2013-3-21,68,53,41,48,42,38,88,69,43,24.80,24.80,10,1,14,0.00
2013-3-22,69,52,38,41,36,23,89,60,20,24.80,21.38,13,1,14,0.00
2013-3-23,72,53,38,45,37,27,86,59,23,24.80,21.38,11,0,11,0.00
2013-3-24,76,55,41,50,43,38,92,66,37,24.80,24.72,11,0,11,0.00
2013-3-25,62,51,42,47,43,39,88,75,57,24.80,24.73,22,1,22,0.00
2013-3-26,75,56,45,52,45,41,85,70,44,29.78,24.50,7,1,10,0.00
2013-3-27,63,55,49,54,49,42,84,79,70,24.80,24.80,15,1,15,0.00
2013-3-28,69,58,52,55,51,48,88,78,59,31.12,22.10,11,1,11,0.00
2013-3-29,81,61,46,56,50,43,91,71,38,31.12,17.59,17,1,17,0.00
2013-3-30,73,60,54,56,52,46,88,75,39,31.27,24.54,17,1,17,0.09
2013-3-31,67,58,54,58,53,51,90,82,60,24.80,24.80,21,1,21,0.12
2013-4-1,69,58,51,56,52,46,92,81,56,24.83,24.76,6,1,13,0.11
2013-4-2,76,58,47,58,50,44,92,77,51,29.78,21.39,9,0,9,0.04
2013-4-3,81,58,47,58,50,43,90,77,36,29.78,22.05,9,0,9,0.00
2013-4-4,63,56,52,57,52,47,92,86,79,24.96,21.47,24,2,24,0.56
2013-4-5,66,58,52,55,52,49,92,79,61,31.94,24.80,14,2,16,0.01
2013-4-6,70,59,54,57,52,49,87,78,59,24.95,21.47,15,1,15,0.00
2013-4-7,65,57,52,55,50,43,87,77,57,31.12,24.80,27,3,33,0.03
2013-4-8,66,55,48,46,41,32,80,60,35,30.97,21.95,29,4,35,0.00
2013-4-9,76,62,48,47,41,35,72,48,26,29.78,21.47,14,2,14,0.00
2013-4-10,88,64,51,54,49,44,82,61,31,31.12,21.47,22,2,22,0.00
2013-4-11,75,59,48,51,47,43,86,66,33,30.69,21.47,17,2,17,0.00
2013-4-12,79,58,46,56,47,42,89,69,39,31.68,18.14,15,1,15,0.00
2013-4-13,64,55,48,49,44,40,84,66,51,30.67,24.76,21,2,21,0.00
2013-4-14,66,53,44,46,40,34,85,64,33,30.69,24.76,28,3,28,0.00
2013-4-15,57,51,44,46,40,36,85,68,50,30.76,23.94,33,4,33,0.00
2013-4-16,66,53,41,42,36,29,77,56,29,29.78,18.14,24,2,24,0.00
2013-4-17,70,60,48,41,35,27,67,41,21,30.60,21.47,17,2,17,0.00
2013-4-18,83,63,46,45,40,34,71,46,23,31.08,20.61,13,1,13,0.00
2013-4-19,84,63,47,55,47,42,85,60,31,31.12,21.47,18,1,18,0.00
2013-4-20,83,64,50,51,45,41,78,54,24,29.78,20.65,10,1,13,0.00
2013-4-21,94,67,47,56,46,41,87,53,19,31.92,22.10,10,0,10,0.00
2013-4-22,94,70,52,54,47,39,83,49,17,31.92,20.58,13,1,13,0.00
2013-4-23,85,68,51,47,37,23,79,37,12,31.08,21.43,28,2,28,0.00
2013-4-24,75,57,46,54,48,42,87,73,45,31.68,18.14,17,2,17,0.00
2013-4-25,65,56,49,53,48,45,89,77,61,31.12,17.59,16,2,16,0.00
2013-4-26,76,57,50,56,48,44,85,73,47,30.65,18.14,12,1,12,0.00
2013-4-27,81,58,47,58,48,43,87,72,38,30.76,17.59,13,1,13,0.00
2013-4-28,92,66,46,59,50,43,88,61,29,31.12,21.47,12,0,12,0.00
2013-4-29,90,69,55,59,52,46,84,58,29,31.08,21.47,17,1,17,0.00
2013-4-30,84,67,51,51,45,19,81,51,16,31.08,21.43,13,1,13,0.00
2013-5-1,91,72,55,42,29,18,41,22,9,31.08,18.12,15,1,15,0.00
2013-5-2,94,68,51,45,33,18,66,34,11,31.08,21.42,10,0,15,0.00
2013-5-3,96,72,52,47,38,28,61,32,14,31.10,20.60,12,1,12,0.00
2013-5-4,91,68,53,51,47,38,78,53,18,32.49,22.05,14,1,14,0.00
2013-5-5,67,59,54,53,50,48,80,71,59,32.49,21.39,28,3,28,0.00
2013-5-6,74,63,53,55,51,48,85,66,44,30.01,21.47,14,1,14,0.00
2013-5-7,77,63,55,55,52,48,82,68,38,31.62,16.48,15,1,15,0.00
2013-5-8,68,57,53,54,50,48,86,77,60,31.68,19.85,17,1,17,0.00
2013-5-9,67,57,52,53,49,47,84,75,59,28.29,16.07,14,2,14,0.00
2013-5-10,79,61,52,58,51,48,87,73,46,29.54,18.14,17,1,17,0.00
2013-5-11,88,65,51,62,53,47,88,68,39,31.16,21.42,11,1,11,0.00
2013-5-12,80,64,50,61,51,44,88,65,31,32.47,18.12,18,1,18,0.00
2013-5-13,81,64,49,59,51,44,86,65,45,31.12,16.48,16,1,16,0.00
2013-5-14,78,64,53,56,50,45,82,62,37,32.49,22.00,15,2,15,0.00
2013-5-15,68,58,50,50,47,43,81,66,43,31.12,22.00,22,3,22,0.00
2013-5-16,71,60,54,56,51,47,83,72,52,31.12,20.60,22,3,22,0.00
2013-5-17,67,58,51,50,46,43,83,66,47,32.46,19.50,23,2,23,0.00
2013-5-18,75,61,49,54,49,44,85,66,41,31.08,21.47,21,2,21,0.00
2013-5-19,87,67,50,50,46,39,83,51,21,31.67,21.31,16,1,16,0.00
2013-5-20,91,69,51,54,45,33,79,50,14,31.90,21.31,16,1,16,0.00
2013-5-21,67,58,51,51,45,38,76,62,48,31.12,20.64,33,4,33,0.00
2013-5-22,63,55,48,44,37,28,74,51,28,32.07,19.85,21,3,21,0.00
2013-5-23,74,58,48,47,43,41,80,61,37,31.12,16.48,18,2,18,0.00
2013-5-24,77,58,47,49,44,41,81,63,36,31.12,17.47,25,2,25,0.00
2013-5-25,74,57,48,51,46,43,83,69,42,31.68,21.47,30,3,32,0.00
2013-5-26,72,61,54,53,51,48,86,71,49,32.49,21.47,24,3,24,0.00
2013-5-27,64,59,54,56,52,48,88,79,70,31.12,17.59,15,2,15,0.02
2013-5-28,70,62,56,57,53,48,90,74,55,31.12,21.42,17,2,17,0.01
2013-5-29,71,62,54,55,51,47,82,68,54,32.42,17.32,23,3,23,0.00
2013-5-30,74,61,50,49,47,45,84,61,38,31.12,20.60,19,2,19,0.00
2013-5-31,88,68,49,56,48,43,82,54,21,32.28,23.29,17,1,17,0.00
2013-6-1,95,71,54,57,50,46,76,50,25,31.93,17.20,13,1,13,0.00
2013-6-2,90,68,53,57,51,47,81,59,28,29.54,17.20,15,1,15,0.00
2013-6-3,70,61,53,54,51,48,84,70,55,31.67,23.45,16,2,16,0.00
2013-6-4,68,60,53,54,51,48,85,74,59,32.41,17.27,17,2,17,0.00
2013-6-5,80,62,54,57,52,48,84,71,45,31.12,17.45,16,1,16,0.00
2013-6-6,84,64,53,58,52,48,85,69,41,32.34,17.59,12,1,12,0.00
2013-6-7,100,70,53,64,55,48,86,62,24,29.78,21.47,8,0,10,0.00
2013-6-8,92,73,59,61,56,53,82,59,32,32.49,26.54,14,1,14,0.00
2013-6-9,70,61,57,57,54,52,84,77,60,31.67,21.43,21,3,21,0.00
2013-6-10,66,60,57,54,53,50,87,77,65,31.10,20.65,19,2,19,0.00
2013-6-11,82,65,56,58,52,45,83,64,43,31.12,21.31,13,1,13,0.00
2013-6-12,78,63,50,53,48,44,82,59,37,31.37,18.28,19,2,19,0.00
2013-6-13,81,64,50,53,47,44,79,56,31,31.97,23.84,18,1,18,0.00
2013-6-14,91,69,52,54,47,39,79,50,21,31.12,21.31,15,1,15,0.00
2013-6-15,80,62,51,56,50,46,85,66,42,29.78,20.61,20,2,20,0.00
2013-6-16,78,64,50,54,49,45,84,60,39,31.68,20.60,23,3,23,0.00
2013-6-17,71,62,54,56,52,48,84,70,57,31.08,20.60,22,3,22,0.00
2013-6-18,69,60,55,52,50,46,84,70,50,31.10,26.27,27,5,27,0.00
2013-6-19,58,54,53,50,48,48,83,81,73,31.68,25.17,15,1,15,0.00
2013-8-8,77,64,55,60,55,51,85,74,54,30.03,28.06,11,2,14,0.00
2013-8-9,75,64,56,58,54,51,85,73,53,28.45,28.06,9,2,17,0.00
2013-8-10,80,64,58,60,56,53,85,74,51,28.06,28.06,7,2,15,0.00
2013-8-11,81,66,56,60,55,52,86,70,42,31.77,28.06,6,1,16,0.00
2013-8-12,84,66,54,60,54,50,86,68,39,28.82,28.82,7,1,11,0.00
2013-8-13,95,69,52,60,53,48,87,61,28,31.62,28.06,8,1,13,0.00
2013-8-14,84,75,54,61,57,48,84,58,34,30.80,26.39,18,2,18,0.00
2013-8-15,84,69,62,66,61,58,86,76,53,29.64,26.39,16,1,16,0.00
2013-8-16,89,70,60,64,59,54,88,70,40,28.10,25.97,16,1,16,0.00
2013-8-17,83,68,58,60,56,53,84,68,40,32.01,25.71,16,1,16,0.00
2013-8-18,97,74,57,65,58,53,87,61,31,28.06,24.11,12,1,12,0.00
2013-8-19,95,76,64,64,59,51,82,59,27,29.35,24.11,11,1,11,0.00
2013-8-20,90,70,61,62,56,48,84,65,33,28.06,24.11,13,1,13,0.00
2013-8-21,88,66,56,59,55,52,85,69,35,32.01,25.74,15,1,15,0.00
2013-8-22,78,64,56,58,54,52,84,72,48,32.01,25.04,17,2,17,0.00
2013-8-23,83,66,57,60,55,52,84,70,44,32.01,24.11,14,1,14,0.00
2013-8-24,81,67,56,60,56,51,85,70,47,28.71,24.46,22,2,22,0.00
2013-8-25,82,70,63,64,60,56,84,72,47,32.01,17.45,18,2,18,0.00
2013-8-26,80,67,61,61,56,50,84,69,42,32.01,25.04,18,2,18,0.00
2013-8-27,86,67,55,60,56,50,87,69,38,32.08,25.64,20,2,20,0.00
2013-8-28,83,69,59,64,60,55,87,75,50,29.38,25.30,13,1,13,0.00
2013-8-29,84,70,61,64,60,57,86,73,47,32.01,25.97,10,1,15,0.00
2013-8-30,92,73,61,65,59,56,87,65,37,32.01,25.23,15,1,15,0.00
2013-8-31,81,68,58,61,57,52,85,69,43,32.01,25.74,15,1,15,0.00
2013-9-1,82,69,61,61,57,53,81,68,39,32.08,17.05,17,1,17,0.00
2013-9-2,84,71,64,65,61,55,84,72,51,32.01,25.97,16,2,16,0.00
2013-9-3,78,68,59,59,55,49,86,66,41,32.01,19.47,19,2,19,0.00
2013-9-4,78,67,58,59,56,54,87,71,45,32.01,24.09,19,2,19,0.00
2013-9-5,77,67,59,57,55,52,86,68,44,32.01,24.32,22,2,22,0.00
2013-9-6,94,72,54,58,51,43,87,54,19,32.01,24.11,14,0,14,0.00
2013-9-7,100,75,57,60,52,46,77,48,17,30.03,25.27,13,0,13,0.00
2013-9-8,95,71,55,63,56,51,86,61,32,29.24,25.97,10,0,10,0.00
2013-9-9,96,71,54,63,55,48,87,62,21,32.01,25.04,15,1,15,0.00
2013-9-10,76,65,57,61,57,52,87,76,59,29.59,25.71,16,1,16,0.00
2013-9-11,74,67,64,60,59,57,82,75,61,32.01,18.26,17,2,17,0.00
2013-9-12,85,67,60,64,59,54,85,76,48,32.01,25.74,15,1,15,0.00
2013-9-13,83,64,56,61,55,52,87,74,40,32.01,25.74,15,1,15,0.00
2013-9-14,74,63,56,59,55,52,86,77,57,27.25,24.35,15,2,17,0.00
2013-9-15,80,66,56,60,56,51,86,72,47,28.06,24.35,16,2,16,0.00
2013-9-16,83,66,58,62,57,54,88,72,44,30.80,25.32,19,2,19,0.00
2013-9-17,71,64,57,56,54,50,85,70,55,32.01,19.47,27,3,27,0.00
2013-9-18,86,66,53,54,49,44,84,57,27,32.01,25.23,15,1,16,0.00
2013-9-19,94,68,50,58,49,43,84,57,18,32.01,20.26,12,0,12,0.00
2013-9-20,75,64,54,62,56,47,85,76,60,28.06,26.41,21,2,21,0.00
2013-9-21,70,63,58,61,57,51,90,81,59,32.01,25.43,20,2,21,0.51
2013-9-22,76,62,52,58,53,48,92,74,45,32.01,24.11,22,2,22,0.01
2013-9-23,86,67,54,62,56,50,88,69,42,32.01,24.11,17,1,17,0.00
2013-9-24,75,64,58,55,53,50,82,67,46,32.01,25.27,26,3,26,0.00
2013-9-25,69,61,56,50,48,44,78,63,45,32.01,19.47,25,3,25,0.00
2013-9-26,77,60,47,48,42,35,77,55,24,32.01,23.86,14,1,14,0.00
2013-9-27,81,63,49,44,39,35,73,45,21,28.59,23.86,17,1,17,0.00
2013-9-28,86,63,48,56,47,26,85,61,12,32.49,24.11,14,0,14,0.00
2013-9-29,75,65,55,61,58,51,88,78,62,28.45,23.76,17,1,17,0.00
2013-9-30,77,67,59,63,57,44,87,72,52,32.01,24.11,15,2,15,0.00
2013-10-1,78,63,53,54,50,46,82,64,41,32.01,24.11,13,1,15,0.00
2013-10-2,77,61,51,56,48,42,86,65,39,32.01,18.26,19,1,19,0.00
2013-10-3,76,63,48,43,36,27,74,40,17,32.01,22.28,16,2,16,0.00
2013-10-4,84,69,57,37,31,25,42,25,13,29.24,23.76,21,2,21,0.00
2013-10-5,84,65,50,37,33,27,55,34,15,28.06,20.26,14,1,14,0.00
2013-10-6,84,63,46,43,37,32,64,40,19,31.45,24.11,10,0,10,0.00
2013-10-7,87,65,49,46,40,22,65,44,10,32.01,24.11,17,0,17,0.00
2013-10-8,83,60,48,54,46,41,86,62,27,32.29,20.26,10,0,10,0.00
2013-10-9,76,59,48,49,44,41,83,61,34,28.13,24.11,13,1,13,0.00
2013-10-10,71,53,49,51,43,40,81,69,45,29.36,24.60,9,0,15,0.00
2013-10-11,75,47,42,52,42,39,90,84,43,32.50,24.09,2,0,9,0.00
2013-10-12,74,56,43,53,46,40,90,72,35,32.49,24.11,15,1,15,0.00
2013-10-13,78,59,46,52,44,39,92,61,27,32.50,22.59,14,0,14,0.00
2013-10-14,82,60,44,49,40,36,84,53,23,32.49,24.11,7,0,7,0.00
2013-10-15,84,61,44,43,36,30,77,45,15,32.49,24.11,11,0,11,0.00
2013-10-16,85,61,45,41,38,33,76,46,18,32.49,24.09,9,0,9,0.00
2013-10-17,89,62,45,42,37,29,72,43,16,32.50,24.11,9,0,9,0.00
2013-10-18,86,60,45,53,44,35,84,59,25,32.49,16.24,7,0,7,0.00
2013-10-19,85,61,44,51,44,37,92,60,19,32.50,24.11,9,0,9,0.00
2013-10-20,81,57,43,56,47,39,89,70,38,32.49,24.11,6,0,6,0.00
2013-10-21,73,55,44,55,48,41,92,76,49,32.01,24.11,6,0,6,0.00
2013-10-22,79,56,45,57,48,41,90,77,42,32.50,23.76,5,0,5,0.00
2013-10-23,72,54,43,55,47,40,90,79,53,32.50,23.76,7,0,7,0.01
2013-10-24,71,54,46,53,47,43,89,78,52,32.50,23.45,13,0,13,0.00
2013-10-25,72,56,45,53,48,42,92,76,50,32.50,24.11,7,0,7,0.00
2013-10-26,85,58,43,52,45,39,92,66,28,32.49,24.11,5,0,5,0.01
2013-10-27,63,52,43,51,45,39,92,77,59,32.50,16.12,27,3,27,0.00
2013-10-28,64,55,48,48,46,43,87,72,47,28.06,24.12,20,2,21,0.00
2013-10-29,66,53,48,49,47,44,84,80,53,31.45,24.12,5,0,12,0.00
2013-10-30,72,46,42,52,42,39,90,86,47,32.50,25.97,2,0,10,0.00
2013-10-31,78,56,42,52,44,37,88,67,34,32.50,17.17,11,0,11,0.00
2013-11-1,74,56,44,49,44,40,88,66,37,32.49,24.11,12,0,12,0.00
2013-11-2,75,55,45,55,46,40,86,73,40,28.68,24.11,18,1,18,0.00
2013-11-3,68,52,41,44,38,28,83,61,24,31.12,25.16,12,0,12,0.00
2013-11-4,73,54,39,39,34,23,83,54,16,29.78,20.67,15,1,15,0.00
2013-11-5,78,57,43,42,37,33,73,50,22,32.50,25.16,6,0,6,0.00
2013-11-6,70,56,44,44,40,37,79,58,33,32.49,17.76,12,1,12,0.00
2013-11-7,81,60,48,51,44,39,84,59,25,32.01,24.12,12,0,12,0.00
2013-11-8,76,56,44,55,46,40,90,73,40,32.50,16.89,16,0,16,0.00
2013-11-9,76,54,41,50,44,38,91,72,40,32.48,24.11,12,0,12,0.00
2013-11-10,70,53,43,52,46,40,90,78,50,32.50,17.17,14,0,14,0.00
2013-11-11,66,54,42,53,47,39,92,78,59,32.50,24.12,7,0,7,0.00
2013-11-12,75,60,54,53,50,47,85,71,43,32.09,24.11,5,0,5,0.00
2013-11-13,79,58,46,56,49,43,92,76,44,32.50,23.86,10,0,10,0.00
2013-11-14,68,54,46,55,48,43,90,78,61,31.45,24.12,17,1,17,0.00
2013-11-15,71,54,45,45,43,40,87,68,38,32.50,24.12,15,1,15,0.00
2013-11-16,66,53,43,51,45,39,88,77,49,32.01,24.12,16,1,16,0.00
2013-11-17,67,51,43,50,45,40,92,80,51,31.45,24.12,9,0,9,0.01
2013-11-18,59,50,40,50,44,37,92,81,64,29.48,17.62,11,0,11,0.01
2013-11-19,58,55,53,54,52,48,89,87,83,28.06,19.52,18,1,18,0.66
2013-11-20,61,56,51,56,53,47,90,88,81,26.86,21.36,14,1,15,0.48
2013-11-21,63,55,48,49,38,24,90,59,25,31.60,21.97,21,2,21,0.02
2013-11-22,71,58,41,31,24,14,65,32,14,31.60,19.47,19,2,24,0.00
2013-11-23,66,51,41,38,34,25,82,55,28,31.58,24.12,14,0,14,0.00
2013-11-24,64,47,37,45,39,33,92,74,45,31.12,16.12,6,0,6,0.00
2013-11-25,61,47,37,47,41,34,91,79,57,32.07,17.08,10,0,10,0.00
2013-11-26,61,49,41,45,41,38,94,76,51,32.50,20.65,7,0,7,0.00
2013-11-27,62,51,42,47,43,38,92,76,56,32.50,20.65,15,1,15,0.00
2013-11-28,71,53,43,48,42,39,88,69,35,31.42,17.32,6,0,6,0.00
2013-11-29,67,51,40,48,42,37,94,74,45,31.45,17.17,9,0,9,0.00
2013-11-30,70,51,42,50,43,39,90,77,42,30.60,17.17,4,0,5,0.01
2013-12-1,69,51,40,50,43,37,91,77,45,31.42,17.32,5,0,5,0.00
2013-12-2,66,52,40,53,46,37,92,82,58,32.50,17.32,19,1,19,0.01
2013-12-3,56,49,38,52,38,30,87,66,45,32.50,17.17,17,1,17,0.00
2013-12-4,59,40,31,34,28,22,85,65,28,32.50,20.65,7,0,7,0.00
2013-12-5,52,36,25,33,25,13,85,67,25,32.50,18.14,10,0,10,0.00
2013-12-6,50,40,27,47,35,24,92,82,54,32.50,24.12,22,1,22,0.25
2013-12-7,49,41,31,44,31,25,92,69,41,32.50,20.65,19,1,19,0.22
2013-12-8,48,35,27,32,26,24,89,74,42,32.50,16.51,9,0,9,0.00
2013-12-9,51,35,25,29,25,22,92,71,38,32.50,21.47,14,0,14,0.00
2013-12-10,51,37,28,33,28,24,89,73,45,32.50,21.47,8,0,8,0.01
2013-12-11,55,40,30,36,31,26,89,73,43,32.50,19.85,13,0,13,0.00
2013-12-12,56,42,32,39,34,29,90,75,45,32.50,20.65,7,0,7,0.00
2013-12-13,61,43,34,43,37,31,91,80,47,32.50,17.59,5,0,5,0.01
2013-12-14,59,43,33,43,36,30,91,77,46,32.50,16.51,13,0,13,0.00
2013-12-15,59,44,34,42,36,31,91,78,50,32.50,20.01,10,0,10,0.01
2013-12-16,63,47,38,43,38,34,92,72,40,32.50,21.96,11,0,11,0.00
2013-12-17,62,48,40,44,40,36,88,74,47,32.50,16.90,7,0,7,0.00
2013-12-18,63,49,39,48,42,35,89,78,56,32.50,16.90,22,1,22,0.00
2013-12-19,62,50,39,44,35,23,83,59,33,31.45,20.57,22,1,22,0.00
2013-12-20,66,46,33,39,30,22,79,55,28,31.51,20.65,6,0,6,0.00
2013-12-21,68,51,43,51,45,39,89,80,55,32.50,19.37,6,0,6,0.00
2013-12-22,61,48,39,44,39,36,91,74,44,30.40,21.47,10,0,10,0.01
2013-12-23,61,47,37,43,38,33,90,74,48,31.12,24.03,9,0,9,0.00
2013-12-24,68,49,39,46,40,36,90,75,43,31.92,22.09,4,0,4,0.00
2013-12-25,62,46,36,45,39,33,92,76,49,29.78,20.65,12,0,12,0.01
2013-12-26,64,47,37,44,38,34,91,72,39,31.51,17.17,9,0,9,0.00
2013-12-27,58,46,37,42,38,34,89,75,48,32.50,21.78,7,0,7,0.00
2013-12-28,66,45,33,43,36,30,90,72,36,31.64,18.14,4,0,4,0.01
2013-12-29,64,46,35,35,32,28,81,60,27,30.80,21.47,16,0,16,0.00
2013-12-30,60,46,36,42,37,32,88,74,47,32.01,24.12,5,0,5,0.00
2013-12-31,62,45,36,43,36,33,89,72,36,31.51,21.96,8,0,8,0.00
2014-1-1,63,45,33,41,35,30,92,71,38,31.45,17.45,4,0,4,0.00
2014-1-2,66,48,37,41,37,33,86,67,36,32.01,17.45,8,0,8,0.00